Volver al catálogo

FENGYUN 1C DEB

ActivoPO
NORAD 30539·DEBRIS·🇨🇳 China

Lanzado May 10, 1999 desde Taiyuan Satellite Launch Center

Loading…

Próximos Pases (próximas 24 horas)

TLE

ActualizadoSource: Space-Track

Época: Sep 14, 2026, 11:11 UTC

1 30539U 99025AKD 26257.46616797  .00001031  00000-0  22339-3 0  9990
2 30539  98.8983 260.9721 0114902 156.9439 203.6973 14.56590753 33560

Sigue FENGYUN 1C DEB en tiempo real con AllMySat

Download on the App Store